Simultaneous Nadir Overpasses (SNOs) Predictions

Prediction of SNOs between LANDSAT-8 and METOP-B Satellite Orbit:

Table of predicted SNOs for the next 14.0 days since TLE Epoch: 10/8/2022
Index Date (LANDSAT-8) Time (LANDSAT-8) Lat,Lon (LANDSAT-8) SZA (LANDSAT-8 ) Date (METOP-B) Time (METOP-B) Lat,Lon (METOP-B) SZA (METOP-B ) Distance(km) Time Diff (sec)
1 10/08/2022 17:56:12 81.10, -49.42 89.48 10/08/2022 17:55:01 81.10, -49.46 89.45 0.69 71
2 10/08/2022 18:45:38 -81.12, 118.50 90.46 10/08/2022 18:45:40 -81.12, 118.64 90.44 2.55 2
3 10/11/2022 13:30:25 81.09, 16.94 90.55 10/11/2022 13:29:25 81.10, 17.06 90.54 2.23 60
4 10/11/2022 14:19:51 -81.11,-175.11 89.39 10/11/2022 14:20:05 -81.12,-175.17 89.39 1.24 14
5 10/14/2022 09:04:37 81.10, 83.49 91.63 10/14/2022 09:03:49 81.10, 83.51 91.62 0.58 48
6 10/14/2022 09:54:03 -81.12,-108.53 88.31 10/14/2022 09:54:29 -81.12,-108.69 88.32 2.69 26
7 10/17/2022 04:38:47 81.12, 150.22 92.72 10/17/2022 04:38:11 81.11, 150.27 92.71 0.92 36
8 10/17/2022 05:28:13 -81.14, -41.79 87.22 10/17/2022 05:28:51 -81.13, -41.91 87.22 2.25 38
9 10/20/2022 00:12:58 81.12,-143.24 93.76 10/20/2022 00:12:34 81.12,-143.05 93.78 3.35 24



Historial Predications of SNOs between LANDSAT-8 and METOP-B
